Regional Weather Roundup
Issued by NWS

Home | Current Version | Previous Version | Text Only | Print | Product List | Glossary Off
Versions: 1 2 3 4 5 6 7 8 9 10 11 12 13 14 15 16 17 18 19 20 21 22 23 24 25 26 27 28 29 30 31 32 33 34 35 36 37 38 39 40 41 42 43 44 45 46 47 48 49 50

000
ASUS43 KMKX 282200
RWRWI

WISCONSIN REGIONAL WEATHER ROUNDUP
NATIONAL WEATHER SERVICE MILWAUKEE/SULLIVAN WI
500 PM CDT THU AUG 28 2014

NOTE: "FAIR" INDICATES FEW OR NO CLOUDS BELOW 12,000 FEET WITH NO
SIGNIFICANT WEATHER AND/OR OBSTRUCTIONS TO VISIBILITY.

WIZ001-002-006>008-014>016-023>028-282300-
NORTHWEST WISCONSIN

CITY           SKY/WX    TMP DP  RH WIND       PRES   REMARKS
SUPERIOR ARPT  CLOUDY    66  58  74 NE8       30.01F
ASHLAND        PTSUNNY   68  55  63 NE12      30.04S
HAYWARD        CLOUDY    70  59  68 SE5       30.03F
SIREN          CLOUDY    72  60  65 S7        30.01F
RICE LAKE      CLOUDY    69  60  72 E7        30.03F
LADYSMITH      CLOUDY    71  60  67 SE6       30.06F
EAU CLAIRE     NOT AVBL
MENOMONIE      DRIZZLE   68  65  90 E8        30.01F
NEW RICHMOND   CLOUDY    68  61  76 SE8       30.00F
OSCEOLA        DRIZZLE   70  63  80 E7        30.02F
$$

WIZ003>005-009-010-017-018-282300-
NORTH CENTRAL WISCONSIN

CITY           SKY/WX    TMP DP  RH WIND       PRES   REMARKS
WOODRUFF       PTSUNNY   72  56  57 S9        30.07F
RHINELANDER    CLOUDY    67  56  67 S3        30.09F
EAGLE RIVER    PTSUNNY   69  52  53 S6        30.07F
LAND O LAKES   PTSUNNY   71  51  49 SW5       30.09S
PHILLIPS       CLOUDY    68  57  68 S6        30.06F
TOMAHAWK       CLOUDY    67  58  73 CALM      30.09S
MEDFORD        DRIZZLE   64  60  87 CALM      30.07F
MERRILL        CLOUDY    68  61  78 S5        30.08F
$$

WIZ029-030-035-036-043>047-282300-
CENTRAL WISCONSIN

CITY           SKY/WX    TMP DP  RH WIND       PRES   REMARKS
WAUSAU         LGT RAIN  68  60  75 SE8       30.06S
MOSINEE        LGT RAIN  66  63  88 E6        30.08F
MARSHFIELD     LGT RAIN  69  63  81 E8        30.05F
STEVENS POINT  CLOUDY    67  60  77 E6        30.07F
WAUPACA        CLOUDY    72  61  70 E8        30.07F
WAUTOMA        NOT AVBL
WISC RAPIDS    LGT RAIN  69  63  81 SE3       30.06F
CAMP DOUGLAS   NOT AVBL
$$

WIZ011>013-019>022-031-037>040-048>050-282300-
NORTHEAST WISCONSIN

CITY           SKY/WX    TMP DP  RH WIND       PRES   REMARKS
ANTIGO         CLOUDY    67  59  75 S6        30.09F
STURGEON BAY   CLOUDY    64  54  68 SE10      30.12S
GREEN BAY      CLOUDY    68  58  70 SE13      30.09F
MANITOWOC      NOT AVBL
APPLETON       CLOUDY    68  55  64 SE10      30.09F
CLINTONVILLE   CLOUDY    68  59  73 SE7       30.08F
OSHKOSH        CLOUDY    69  58  67 SE10      30.07F
$$

WIZ032>034-041-042-053>061-282300-
SOUTHWEST WISCONSIN

CITY           SKY/WX    TMP DP  RH WIND       PRES   REMARKS
LA CROSSE      LGT RAIN  70  65  84 SE7       29.99F
SPARTA         CLOUDY    70  63  77 E5        30.03F
VIROQUA        CLOUDY    68  66  93 E7        30.02F
BOSCOBEL       PTSUNNY   74  64  71 SE6       30.01F
PRAIRIE DU CHI PTSUNNY   73  62  68 SE9       29.99F
PLATTEVILLE    FAIR      71  64  78 SE9G16    30.03F
$$

WIZ056-057-062-063-064-067-068-282300-
SOUTH CENTRAL WISCONSIN

CITY           SKY/WX    TMP DP  RH WIND       PRES   REMARKS
BARABOO/DELLS  CLOUDY    71  61  70 E3        30.04F
LONE ROCK      NOT AVBL
WATERTOWN      CLOUDY    69  56  64 SE8       30.07S
MADISON        CLOUDY    74  60  61 E10       30.05S
MIDDLETON      FAIR      74  60  61 SE9       30.05S
MONROE         CLOUDY    72  61  68 SE9       30.05F
JANESVILLE     SUNNY     73  55  53 E9        30.06S
$$

WIZ051-052-058>065-066-070>072-282300-
SOUTHEAST WISCONSIN

CITY           SKY/WX    TMP DP  RH WIND       PRES   REMARKS
MILWAUKEE      PTSUNNY   68  56  65 NE10      30.09F
WAUKESHA       MOSUNNY   66  52  59 E12       30.10F
MILWAUKEE/TIMM SUNNY     68  52  56 E7        30.10F
RACINE         PTSUNNY   68  57  68 E9        30.10F
BURLINGTON     PTSUNNY   68  51  53 E9        30.08F
KENOSHA        MOSUNNY   67  58  72 E10       30.09F
FOND DU LAC    CLOUDY    68  55  63 SE13      30.08F
SHEBOYGAN      CLOUDY    66  53  63 SE8       30.10F
WEST BEND      CLOUDY    64  50  59 E7        30.10F
JUNEAU         CLOUDY    68  56  66 E12       30.08F
$$

LSZ147-162-282300-
LAKE SUPERIOR

STATION/POSITION TIME  TEMP    WIND        PRES    WAVE
                       AIR SEA DIR/SP/G            HT/PER
                 (UTC) (F)     (DEG/KT/KT) (MB)    (FT/S)
W MID LAKE BUOY  2050   60 60   70/  4/  6 1018.1F   0
DEVILS ISLAND    2100   62      70/ 10/ 12 1017.4F
PORT WING        2140   65      30/ 12/ 14 1016.6F
SAXON HARBOR     2100   67      50/ 11/ 14 1017.3F
$$

LMZ867-665-643>646-282300-
LAKE MICHIGAN

STATION/POSITION TIME  TEMP    WIND        PRES    WAVE
                       AIR SEA DIR/SP/G            HT/PER
                 (UTC) (F)     (DEG/KT/KT) (MB)    (FT/S)
N MID LAKE BUOY  2050   63 66  110/  4/  6 1020.7F   0
NORTHPORT PIER   2100   65     150/  9/ 14 1019.6F
SISTER BAY       2126   70     170/  9/ 12   N/A
KEWAUNEE LAKESHO 2100   65     170/ 10/ 12 1019.1F
SHEBOYGAN LAKESH 2100   65 70  160/  9/ 10 1020.3F
ATWATER BUOY     2100   67      90/  6/ 10 1020.6F
MILWAUKEE LAKESH 2100   67      90/  7/  9   N/A
S MID LAKE BUOY  2050   68 69   50/ 10/ 12 1019.2F
KENOSHA   LAKESH 2100   68      90/  9/ 11 1019.0S
$$

TC  - TEMPERATURE IN CELSIUS
VSB - VISIBILITY IN STATUTE MILES
WCI - WIND CHILL INDEX
HX  - HEAT INDEX




USA.gov is the U.S. government's official web portal to all federal, state and local government web resources and services.